TimeEDT,TemperatureF,Dew PointF,Humidity,Sea Level PressureIn,VisibilityMPH,Wind Direction,Wind SpeedMPH,Gust SpeedMPH,PrecipitationIn,Events,Conditions,WindDirDegrees,DateUTC
12:43 AM,82.4,75.2,79,29.99,10.0,ESE,15.0,-,N/A,,Mostly Cloudy,110,2013-08-23 04:43:00
12:51 AM,82.4,75.2,79,29.98,10.0,ESE,16.1,-,N/A,,Scattered Clouds,110,2013-08-23 04:51:00
12:53 AM,82.9,75.0,77,29.99,10.0,ESE,15.0,-,N/A,,Scattered Clouds,110,2013-08-23 04:53:00
1:53 AM,82.9,75.0,77,29.97,10.0,ESE,13.8,-,N/A,,Scattered Clouds,110,2013-08-23 05:53:00
2:53 AM,82.9,75.0,77,29.95,10.0,ESE,13.8,-,N/A,,Partly Cloudy,110,2013-08-23 06:53:00
3:53 AM,82.9,75.0,77,29.94,10.0,ESE,15.0,-,N/A,,Partly Cloudy,110,2013-08-23 07:53:00
4:53 AM,82.9,73.9,74,29.93,10.0,ESE,12.7,-,N/A,,Clear,120,2013-08-23 08:53:00
5:53 AM,82.9,75.0,77,29.93,10.0,ESE,11.5,-,N/A,,Partly Cloudy,120,2013-08-23 09:53:00
6:53 AM,82.0,75.0,79,29.94,10.0,SE,11.5,-,N/A,,Clear,130,2013-08-23 10:53:00
7:53 AM,82.9,73.9,74,29.96,10.0,ESE,10.4,-,N/A,,Clear,120,2013-08-23 11:53:00
8:53 AM,84.0,75.0,74,29.96,10.0,SE,9.2,-,N/A,,Clear,130,2013-08-23 12:53:00
9:53 AM,84.9,75.9,74,29.97,10.0,ESE,10.4,-,N/A,,Partly Cloudy,120,2013-08-23 13:53:00
10:53 AM,86.0,77.0,74,29.99,10.0,ESE,10.4,-,N/A,,Scattered Clouds,110,2013-08-23 14:53:00
11:53 AM,86.0,77.0,74,29.99,10.0,SE,11.5,-,N/A,,Clear,130,2013-08-23 15:53:00
12:53 PM,87.1,77.0,72,29.99,10.0,ESE,9.2,-,N/A,,Partly Cloudy,120,2013-08-23 16:53:00
1:53 PM,87.1,78.1,74,29.98,10.0,East,9.2,-,N/A,,Partly Cloudy,100,2013-08-23 17:53:00
2:53 PM,87.1,77.0,72,29.96,10.0,ESE,10.4,-,N/A,,Clear,120,2013-08-23 18:53:00
3:53 PM,87.1,75.9,69,29.95,10.0,ESE,10.4,-,N/A,,Clear,110,2013-08-23 19:53:00
4:53 PM,87.1,75.0,67,29.94,10.0,ESE,10.4,-,N/A,,Clear,110,2013-08-23 20:53:00
5:53 PM,87.1,75.9,69,29.95,10.0,East,11.5,-,N/A,,Clear,100,2013-08-23 21:53:00
6:53 PM,84.9,75.9,74,29.96,10.0,East,9.2,-,N/A,,Clear,100,2013-08-23 22:53:00
7:53 PM,82.9,75.9,79,29.96,10.0,East,5.8,-,N/A,,Clear,80,2013-08-23 23:53:00
8:53 PM,82.9,75.0,77,29.98,10.0,East,10.4,-,N/A,,Clear,90,2013-08-24 00:53:00
9:53 PM,82.9,77.0,82,29.99,10.0,East,11.5,-,N/A,,Partly Cloudy,90,2013-08-24 01:53:00
10:53 PM,82.9,75.9,79,30.00,10.0,ESE,13.8,-,N/A,,Partly Cloudy,110,2013-08-24 02:53:00
11:53 PM,82.9,75.9,79,30.01,7.0,ESE,15.0,-,0.00,Rain,Light Rain,120,2013-08-24 03:53:00